map of RUN home
Great Circle Mapper logo
RUN - Airport
Location
City:  St-Denis, Réunion
Near (Alt.):St-Denis de la Réunion
Name:Roland Garros
Old (Alt.):Gillot
ICAO / IATA:FMEE / RUN

Details
Type:Airport (Aerodrome, Airfield)
Latitude:20°53'24"S (-20.889999)
Longitude:55°30'59"E (55.516389)
Elevation:66 ft (20 m)
Variation:19.05°W (WMM2015 magnetic declination)
0.04° annual change
Runways:2
Longest:10499 × 148 ft (3200 × 45 m), paved

Time
Time Zone:UTC+4
Local Time:

Weather
METAR:FMEE 120030Z AUTO 17004KT 9999 NSC 25/23 Q1006
TAF:FMEE 111900Z 1200/1306 16008KT 9999 SCT020TCU
BECMG 1203/1205 32010KT SCT025
BECMG 1208/1210 03008KT FEW025

Related Locations
Nearby:
Farthest:MMCD: 11676 mi / 18790 km
Cedros [Isla de Cedros Airport], Isla de Cedros, BCN, MX

Find:

   beyond  
but within

Other Information
Maps:
NOTAMs:
Links:
Sources:

  
flag of Réunion   

Airport Diagram

Airport diagram for RUN

Airport diagram (OBSOLETE) from NGA

Sectional Chart

Flight Planning
at skyvector.com

Satellite Image

Google Maps Satellite view

 

Copyright © 2004-2016 Karl L. Swartz. All rights reserved.
The Great Circle Mapper name and logo are trademarks of the Great Circle Mapper.
All other trademarks mentioned herein belong to their respective owners.
Please see credits for attibutions and further copyright information.

  Follow gcmap on Facebook Follow gcmap on Twitter Follow gcmap on Google+ GCmap on LinkedIn

hCard Microformat

Geo Microformat